Sheridan, NY

3:40 PM EDT on August 25, 2016 (GMT -0400)
Chautauqua County-Dunkirk

Weather History for KDKK - March, 2013

Change the Weather History Date:

Saturday, March 2, 2013

  Actual Average Record
Temperature  
Mean Temperature 24 °F -  
Max Temperature 26 °F 40 °F 69 °F (1991)
Min Temperature 21 °F 23 °F -10 °F (1980)
Degree Days  
Heating Degree Days 42    
Moisture  
Dew Point 18 °F    
Average Humidity 80    
Maximum Humidity 86    
Minimum Humidity 74    
Precipitation  
Precipitation 0.00 in - - ()
Sea Level Pressure  
Sea Level Pressure 29.96 in    
Wind  
Wind Speed 9 mph (NW)    
Max Wind Speed 13 mph    
Max Gust Speed -    
Visibility 6 miles    
Events Snow    
Averages and records for this station are not official NWS values.
T = Trace of Precipitation, MM = Missing Value Source: NWS Daily Summary

Daily Weather History Graph

Daily Weather History Graph

Search for Another Location

Airport or City:

Trip Planner

Search our weather history database for the weather conditions in past years. The results will help you decide how hot, cold, wet, or windy it might be!

Date:

Astronomy

Mar. 02, 2013 Rise Set
Actual Time 6:50 AM EST 6:08 PM EST
Civil Twilight 6:22 AM EST 6:36 PM EST
Nautical Twilight 5:49 AM EST 7:09 PM EST
Astronomical Twilight 5:17 AM EST 7:41 PM EST
Moon 11:54 PM EST (3/2) 9:10 AM EST (3/2)
Length of Visible Light 12h 14m
Length of Day
11h 17m
Waning Gibbous, 74% of the Moon is Illuminated
Mar 2
Waning Gibbous
Mar 4
Last Quarter
Mar 11
New
Mar 19
First Quarter
Mar 27
Full

Hourly Weather History & Observations

Time (EST) Temp. Windchill Dew Point Humidity Pressure Visibility Wind Dir Wind Speed Gust Speed Precip Events Conditions
12:53 AM 26.1 °F 16.8 °F 19.9 °F 78% 29.98 in 10.0 mi North 9.2 mph - N/A   Overcast
1:53 AM 25.0 °F 15.5 °F 19.0 °F 78% 29.99 in 10.0 mi North 9.2 mph - N/A   Overcast
2:53 AM 24.1 °F 13.1 °F 19.0 °F 81% 29.98 in 10.0 mi North 11.5 mph - N/A   Overcast
4:53 AM 24.1 °F 14.4 °F 19.0 °F 81% 29.98 in 9.0 mi NNW 9.2 mph - 0.00 in Snow Light Snow
5:07 AM 24.8 °F 14.0 °F 19.4 °F 80% 29.95 in 9.0 mi North 11.5 mph - 0.00 in Snow Light Snow
5:53 AM 23.0 °F 11.7 °F 18.0 °F 81% 29.98 in 10.0 mi North 11.5 mph - 0.00 in   Overcast
6:53 AM 21.9 °F 12.5 °F 18.0 °F 85% 29.99 in 10.0 mi NNW 8.1 mph - N/A   Overcast
7:53 AM 21.9 °F 11.0 °F 17.1 °F 82% 29.99 in 5.0 mi NNW 10.4 mph - N/A   Haze
8:51 AM 21.2 °F 11.7 °F 17.6 °F 86% 29.97 in 2.0 mi NNW 8.1 mph - 0.00 in Snow Light Snow
8:53 AM 21.0 °F 11.4 °F 17.1 °F 85% 30.00 in 2.0 mi North 8.1 mph - 0.00 in Snow Light Snow
9:04 AM 21.2 °F 11.7 °F 17.6 °F 86% 29.97 in 3.0 mi NNW 8.1 mph - 0.00 in   Haze
9:12 AM 21.2 °F 10.9 °F 15.8 °F 80% 29.97 in 2.5 mi NNW 9.2 mph - 0.00 in   Haze
9:22 AM 21.2 °F 10.9 °F 15.8 °F 80% 29.97 in 2.0 mi NNW 9.2 mph - 0.00 in   Haze
9:34 AM 21.2 °F 11.7 °F 15.8 °F 80% 29.97 in 1.5 mi NNW 8.1 mph - 0.00 in Snow Light Snow
9:53 AM 21.9 °F 12.5 °F 16.0 °F 78% 30.00 in 3.0 mi NNW 8.1 mph - 0.00 in   Haze
10:53 AM 21.9 °F 11.7 °F 16.0 °F 78% 29.99 in 6.0 mi NNW 9.2 mph - N/A   Haze
11:53 AM 21.9 °F 13.4 °F 15.1 °F 75% 29.99 in 8.0 mi WNW 6.9 mph - N/A   Overcast
12:53 PM 21.9 °F 14.5 °F 16.0 °F 78% 29.99 in 6.0 mi NW 5.8 mph - N/A   Haze
1:53 PM 21.9 °F 11.7 °F 16.0 °F 78% 29.97 in 6.0 mi WNW 9.2 mph - N/A   Haze
2:14 PM 23.0 °F 14.7 °F 17.6 °F 80% 29.93 in 4.0 mi NW 6.9 mph - N/A   Haze
2:26 PM 23.0 °F 13.9 °F 15.8 °F 74% 29.93 in 9.0 mi NW 8.1 mph - N/A   Overcast
2:53 PM 23.0 °F 13.9 °F 17.1 °F 78% 29.96 in 10.0 mi West 8.1 mph - N/A   Overcast
3:53 PM 24.1 °F 15.2 °F 19.0 °F 81% 29.95 in 5.0 mi West 8.1 mph - N/A   Haze
4:43 PM 24.8 °F 16.9 °F 19.4 °F 80% 29.92 in 4.0 mi WSW 6.9 mph - 0.00 in Snow Light Snow
4:53 PM 24.1 °F 13.7 °F 19.0 °F 81% 29.95 in 5.0 mi WSW 10.4 mph - 0.00 in Snow Light Snow
5:53 PM 24.1 °F 16.0 °F 19.9 °F 84% 29.96 in 3.0 mi WSW 6.9 mph - 0.00 in Snow Light Snow
6:50 PM 26.6 °F 20.0 °F 21.2 °F 80% 29.92 in 5.0 mi WNW 5.8 mph - 0.00 in Snow Light Snow
6:53 PM 26.1 °F 19.4 °F 21.0 °F 81% 29.96 in 6.0 mi West 5.8 mph - 0.00 in Snow Light Snow
8:40 PM 26.6 °F 17.5 °F 23.0 °F 86% 29.92 in 6.0 mi North 9.2 mph - 0.00 in   Overcast
8:53 PM 26.1 °F 16.2 °F 21.9 °F 84% 29.96 in 7.0 mi North 10.4 mph - 0.00 in   Overcast
9:32 PM 24.8 °F 14.6 °F 21.2 °F 86% 29.93 in 4.0 mi NNW 10.4 mph - 0.00 in Snow Light Snow
9:53 PM 25.0 °F 13.6 °F 19.0 °F 78% 29.96 in 4.0 mi NNW 12.7 mph - 0.00 in Snow Light Snow
10:53 PM 24.1 °F 13.1 °F 18.0 °F 77% 29.95 in 10.0 mi NNW 11.5 mph - 0.00 in   Overcast
11:53 PM 24.1 °F 15.2 °F 17.1 °F 75% 29.95 in 7.0 mi NNW 8.1 mph - 0.00 in Snow Light Snow